Погода в Выксе

Погода в Выксе : погода сейчас, прогноз погоды и архив. Всё, что Вы хотите узнать о погоде в Выксе!

Хотите узнать прогноз погоды в Выксе? Тогда Вам сюда: Погода в Выксе

Поиск расширенной информации на нашем сайте:

Другие новости

Новости СМИ2

Главная страница сайта

Новости сайта

03.07.2017

Напоминаем, что на нашем специализированном сайте Метеоцентр.Азия вы можете получить высокодетализированные автоматические прогнозы погоды по пунктам России, СНГ и мира в авиационном формате (включающие направление и скорость ветра, видимость, явления погоды, количество и форму облачности, нижнюю и верхнюю границу облачности).


Погода в Выксе - сегодня

Время (UTC), дата Ветер
(°,м/с) 
Видим.   Явления Облачность Т
(°С)
Тd
(°С)
f(%) Тe
(°С)
Pmin
(гПа)
dP
(гПа)
Po
(мм)
O2
(г/м3)
Тmin Tmax R s Состояние
почвы
09 20.01.18 120 (ЮВ) 3-5{08}  2000 м  слаб. снег  10/10 210 м 
[Ns]
-8.4 -10.3 86 -11  1017.7  -0.5  752  314           
12 20.01.18 120 (ЮВ) 3-6{07}  2000 м  слаб. снег  10/10 210 м 
[Ns]
-8.3 -10.2 86 -11  1016.1  -1.5  751  313           
15 20.01.18 150 (ЮВ) 2-4{07}  10 км  слаб. снег  10/10 300 м 
[Sc]
-8.1 -9.9 87 -10  1015.8  -0.3  751  313    -8.1     
18 20.01.18 140 (ЮВ) 2-5{06}  10 км  слаб. снег  10/10 300 м 
[Sc|As trans]
-8.7 -10.6 86 -10  1015  -0.8  750  313           
21 20.01.18 150 (ЮВ) 2-5{05}  10 км  слаб. снег  10/10 330 м 
[Sc]
-7.8 -9.6 87 -9  1015.7  0.7  751  312           
00 21.01.18 150 (ЮВ) 2-5{06}  10 км  слаб. снег  10/10 300 м 
[Sc]
-6.2 -7.7 89 -8  1015  -0.5  750  310           
03 21.01.18 150 (ЮВ) 2-4{06}  10 км  {снег}  10/10 400 м 
[Sc]
-4.7 -6.4 88 -6  1014.6  -0.4  750  308  -8.8    равномерный
сухой снег
100% 
06 21.01.18 140 (ЮВ) 2-5{06}  10 км  слаб. снег  10/0 средняя 
[As op]
-5.5 -7.3 87 -7  1014.1  -0.6  750  309  -5.6         
09 21.01.18 130 (ЮВ) 2-5{06}  4000 м  слаб. снег  10/0 средняя 
[As op]
-5.4 -7.2 87 -7  1014.8  0.7  750  309           
12 21.01.18 110 (В) 3-5{07}  4000 м  слаб. снег  10/0 средняя 
[As op]
-5.1 -6.5 90 -7  1014.3  -0.4  750  309           
15 21.01.18 120 (ЮВ) 3-6{07}  2000 м  снег  10/10 180 м 
[Ns]
-5.5 -6.6 92 -8  1011.4  -3  748  308    -4.7     
18 21.01.18 120 (ЮВ) 3-5{06}  2000 м  снег  10/10 180 м 
[Ns]
-5.7 -6.4 95 -8  1008.8  -2.6  746  308           
21 21.01.18 150 (ЮВ) 1-3{06}  2000 м  снег  10/10 180 м 
[Ns]
-5.7 -6.4 95 -5  1007  -1.8  744  307           
00 22.01.18 220 (ЮЗ) 2-3{04}  2000 м  снег  10/10 180 м 
[Ns]
-5.9 -6.6 95 -7  1007.8  0.8  745  307           
03 22.01.18 230 (ЮЗ) 2-4{06}  4000 м  в посл. час снег  10/10 210 м 
[Ns]
-7.1 -8 93 -9  1009.6  1.8  746  310  -7.2    16  равномерный
сухой снег
100% 
06 22.01.18 210 (ЮЗ) 2-4{07}  10 км  слаб. снег  10/10 300 м 
[Sc]
-5.5 -6.9 90 -7  1012.9  3.3  749  309           
09 22.01.18 270 (З) 4{06}  10 км  {снег}  10/0 средняя 
[As op]
-4.2 -6.1 87 -7  1014.7  1.9  750  308           
12 22.01.18 240 (ЮЗ) 2-4{07}  10 км  {снег}  10/0 средняя 
[Ac As]
-4.7 -7.5 81 -6  1018  3.2  753  309           
15 22.01.18 230 (ЮЗ) 1-2{05}  10 км    10/0 средняя 
[As op]
-7.8 -9.6 87 -8  1020.4  2.2  754  314    -4.2  0.0     
18 22.01.18 210 (ЮЗ) 1-2{02}  10 км    3/0 средняя 
[Ac trans]
-10.2 -11.5 90 -10  1022.1  1.6  755  317           
21 22.01.18 тихо () -0{02}  10 км    ясно 
-13.4 -15.4 85 -13  1023.6  1.2  756  322           
00 23.01.18 тихо () -0{02}  10 км    ясно 
-13.7 -15.7 85 -14  1025.4  1.8  758  323           
03 23.01.18 тихо () -0{01}  10 км    10/0 средняя 
[As op]
-14.1 -16.1 85 -14  1025.7  0.3  758  323  -14.2      16  равномерный
сухой снег
100% 
06 23.01.18 310 (СЗ) 1-1{01}  10 км    10/0 средняя 
[As op]
-14.2 -16.2 85 -14  1025.9  0.2  758  324  -14.3         
09 23.01.18 330 (СЗ) 1-2{02}  10 км    10/0 средняя 
[Ac As]
-11.4 -13.4 85 -11  1025.7  -0.1  758  320           
Время (UTC), дата Ветер
(°,м/с) 
Видим.   Явления Облачность Т
(°С)
Тd
(°С)
f(%) Тe
(°С)
Pmin
(гПа)
dP
(гПа)
Po
(мм)
O2
(г/м3)
Тmin Tmax R s Состояние
почвы

Для получения пояснительной информации подведите курсор к названию столбца.

ПОГОДА в Выксе - архив

Всё, что Вы хотите узнать о погоде в Выксе - удобно и подробно!

Выберите нужную дату (начиная с 1 января 2015* года) и нажмите кнопку "Найти".
Будут отображены архивные сводки погоды по пункту Выкса, начиная с указанной даты.


Отображать данные в формате CSV (для использования в таблицах Excel)


Внимание! Наш архив погоды предназначен исключительно для личного некоммерческого использования в познавательных целях. Если Вам необходимы официальные справки о состоянии погоды (для производственных, юридических, коммерческих и т.п. целей), обращайтесь в органы Росгидромета.

*Примечание: данная дата относится к архиву по метеостанциям СССР (Россия, СНГ, Балтия).
Архив по метеостанциям Зарубежной Европы и Азии (кроме Китая) хранится 10 дней, по другим регионам земного шара (Китай, Африка, Америка, Австралия, Океания) - 1 день.

Выкса - район местоположения метеостанции


Название, широта, долгота, высота метеостанции:
Выкса 55.3°ш. 42.1°д. 114 м над ур. моря [Российская Федерация]

Дополнительная информация

В oтличие oт бoльшинства пoгoдных сайтoв мы публикуем пoдрoбную метеoинфoрмацию в детальнoм прoфессиoнальнoм фoрмате.

Характеристики температуры и влажнoсти вoздуха измеряются на высoте 2 м в тени вдали oт зданий и деревьев.
Скoрoсть ветра измеряется на высoте 10 м (на урoвне рoста челoвека скoрoсть ветра ниже в 1.5-2 раза). Если метеoстанция нахoдится в гoрoде или в лесу, тo скoрoсть ветра занижена на 2-4 м/с пo сравнению с oткрытым местoм. Скoрoсть ветра над акватoриями крупных рек и oзёр, а также на вершинах хoлмoв на 2-5 м/с выше, чем в oбычных услoвиях.
Атмoсфернoе давление в разных тoчках местнoсти мoжет значительнo oтличаться oт давления на метеoстанции, в зависимoсти oт услoвий рельефа (при пoдъёме на 10 м давление пoнижается примернo на 1 мм рт.ст.).